Showing default

SOLRAD 1 (GREB), 46

Orbit data source: Space-Track

SOLRAD 1 (GREB), 46 is a payload satellite owned by NRL (US) in LEO that was launched on Wed, 22 Jun 1960 UTC via a THOR ABLESTAR launch vehicle from the Air Force Eastern Test Range (AFETR). Payload-class satellites include a variety of spacecraft equipped with specific instruments for various scientific and technological missions. These include communications satellites like Starlink; space stations such as the ISS; scientific satellites like the Hubble; Earth observation satellites from companies like Planet Labs, Umbra, and HawkEye 360; GPS; miniature CubeSats for education and research; and military/defense satellites.

Loading next visibility...
Identifier
46, 1960-007B
Orbit
LEO
Last TLE update
15 hours ago
Origin
Manufacturer
NRL
Mission
Defense Sigint
Bus & Motor
NRL 20", Unknown motor
Mass
19 kg wet, 19 kg dry
Launch date (UTC)
1960-06-22 (65 years ago)
Launch vehicle
THOR ABLESTAR
Launch site
Air Force Eastern Test Range (AFETR)
Object type
Payload
Rocket body
Debris
Shape & HBR
Sphere, 0.3 m
Radar Cross Section
0.204 m², Medium (>0.1 m² and < 1m²)

Expand to show TLE details & history

TLE from 15 hours ago
0 SOLRAD 1 (GREB)
1 00046U 60007B   25186.21009585  .00000410  00000-0  96275-4 0  9993
2 00046  66.6888  93.5753 0199209 196.1693 163.3003 14.54019051406546
Epoch: 2025-07-05T05:02Z
TLE epoch observation values (Epoch: 2025-07-05T05:02:32.281Z)
Latitude
-0.00006°
Longitude
94.48936°
Altitude
850.219 km
Speed
7.357 km/s
True Right ascension
06h 14m 18s
True Declination
0° 00' 00"
Sunlit
Object was in daylight at epoch
Visualization orbit readout
Latitude
-27.89148°
Longitude
79.70852°
Altitude
818.659 km
Speed
7.392 km/s
Apparent Right ascension
01h 54m 21s
Apparent Declination
-62° 56' 31"
Sunlit
Object is in daylight
Visualization observer readout
Local Sidereal Time
07:41:04
Azimuth
212.976° SW
Elevation
-33.451°
Doppler factor
1
Orbital elements
Apogee altitude
852.129 km
Perigee altitude
569.689 km
Semi-major axis
7,089.046 km
Eccentricity
0.01992
Inclination
66.6888°
RAAN
93.5753°
Arg. of periapsis
196.1693°
True anomaly
Unknown
Mean anomaly
163.3003°
Eccentric anomaly
Unknown
Mean motion
3.63631 °/min
Orbital period
99 mins
BSTAR
0.000096275
Loading maneuver chart data...
Loading SW <> Apogee altitude chart data...
Loading historical data...
Loading historical data...
Loading historical data...
Loading historical data...
Loading historical data...
Loading historical data...
Loading historical data...

SOLRAD 1 (GREB) Visibility forecast

Observer location: undefined°, undefined°

Span
Click to sort rows by Start time (UTC) header in descending order
Start Az.
Max El. time (UTC)
Max El. Az.
Max El.
End time (UTC)
End Az.
10 mins2025-07-05 20:02:19.303Z228.234° WSW2025-07-05 20:07:19.303Z296.04° NW38.059°2025-07-05 20:12:19.303Z17.897° NNE
4 mins2025-07-06 03:03:19.303Z19.612° NNE2025-07-06 03:05:19.303Z46.907° ENE13.608°2025-07-06 03:07:19.303Z73.162° E
7 mins2025-07-06 04:44:19.303Z327.4° NNW2025-07-06 04:47:19.303Z257.825° W44.554°2025-07-06 04:51:19.303Z156.545° SSE
9 mins2025-07-06 19:09:19.303Z200.134° SSW2025-07-06 19:13:19.303Z90.891° ESE44.203°2025-07-06 19:18:19.303Z32.194° NE
|